This is the latest recevied weather packets stored in our database for station/object SQ7IQO. If no packets are shown the sender has not sent any weather packets the latest 10 day(s).
| Time | Temp. | Humidity | Pressure | Rain* | Wind** | Luminosity | Snow |
|---|---|---|---|---|---|---|---|
| 1787991521 | 16.67° C | 97% | 1014.7 hPa | 41.91 mm | 0.89 m/s, ° | - | - |
| 1787991461 | 16.67° C | 97% | 1014.5 hPa | 41.91 mm | 0.89 m/s, ° | - | - |
| 1787991401 | 16.11° C | 97% | 1014.5 hPa | 60.96 mm | 0 m/s | - | - |
| 1787991341 | 16.11° C | 97% | 1014.5 hPa | 60.96 mm | 0.89 m/s, ° | - | - |
| 1787991281 | 16.11° C | 97% | 1014.5 hPa | 60.96 mm | 1.34 m/s, ° | - | - |
| 1787991221 | 16.11° C | 98% | 1012.8 hPa | 60.96 mm | 0.45 m/s, ° | - | - |
| 1787991161 | 16.11° C | 98% | 1014.5 hPa | 83.82 mm | 0.89 m/s, ° | - | - |
| 1787991101 | 16.11° C | 98% | 1014.5 hPa | 83.82 mm | 0.45 m/s, ° | - | - |
| 1787991041 | 16.11° C | 98% | 1014.4 hPa | 83.82 mm | 0.45 m/s, ° | - | - |
| 1787990981 | 16.11° C | 97% | 1114.3 hPa | 83.82 mm | 1.34 m/s, ° | - | - |
| 1787990921 | 16.11° C | 98% | 1014.4 hPa | 83.82 mm | 0.89 m/s, ° | - | - |
| 1787990861 | 16.11° C | 97% | 1028.6 hPa | 83.82 mm | 0 m/s | - | - |
| 1787990801 | 16.11° C | 97% | 1014.4 hPa | 83.82 mm | 0.45 m/s, ° | - | - |
| 1787990741 | 16.11° C | 97% | 1014.4 hPa | 83.82 mm | 0.45 m/s, ° | - | - |
| 1787990681 | 16.11° C | 97% | 1014.4 hPa | 83.82 mm | 0.45 m/s, ° | - | - |
| 1787990621 | 16.11° C | 97% | 1226.7 hPa | 83.82 mm | 0.89 m/s, ° | - | - |
| 1787990561 | 16.11° C | 97% | 1014.4 hPa | 83.82 mm | 1.79 m/s, ° | - | - |
| 1787990501 | 16.11° C | 97% | 1014.4 hPa | 83.82 mm | 1.79 m/s, ° | - | - |
| 1787990441 | 16.11° C | 98% | 1014.5 hPa | 86.87 mm | 1.34 m/s, ° | - | - |
| 1787990381 | 16.11° C | 98% | 1014.2 hPa | 86.87 mm | 1.34 m/s, ° | - | - |
| 1787990321 | 16.11° C | 98% | 1014.3 hPa | 86.87 mm | 0.89 m/s, ° | - | - |
| 1787990261 | 16.11° C | 98% | 1014.4 hPa | 86.87 mm | 0.89 m/s, ° | - | - |
| 1787990201 | 16.11° C | 97% | 1014.3 hPa | 86.87 mm | 0.89 m/s, ° | - | - |
| 1787990141 | 16.11° C | 97% | 1014.3 hPa | 86.87 mm | 0.89 m/s, ° | - | - |
| 1787990081 | 16.11° C | 97% | 1014.2 hPa | 86.87 mm | 0.89 m/s, ° | - | - |
* Rain latest hour (hover to see other rain measurements)
** Current wind speed in m/s (hover to see current wind gust speed)